Regional Weather Roundup
Issued by NWS

Home | Current Version | Previous Version | Text Only | Print | Product List | Glossary Off
Versions: 1 2 3 4 5 6 7 8 9 10 11 12 13 14 15 16 17 18 19 20 21 22 23 24 25 26 27

000
ASUS45 KBOU 020607
RWRCO

WEATHER ROUNDUP FOR COLORADO
NATIONAL WEATHER SERVICE DENVER/BOULDER CO
1200 AM MDT MON MAY 02 2016

NOTE: "FAIR" INDICATES FEW OR NO CLOUDS BELOW 12000 FEET WITH NO
SIGNIFICANT WEATHER AND/OR OBSTRUCTIONS TO VISIBILITY.

COZ001>005-013-030-031-020700-
...NORTHWEST COLORADO...

CITY           SKY/WX    TMP DP  RH WIND       PRES   REMARKS
CRAIG          FAIR      39  27  62 S5        30.17R
HAYDEN         CLOUDY    39  25  56 E10       30.16S
MEEKER         FAIR      40  28  62 W6        30.18R
MOUNT WERNER   NOT AVBL
STEAMBOAT SPGS MOCLDY    37  24  59 CALM      30.18S
WALDEN         FAIR      21  16  79 CALM      30.25S
$$

COZ006>008-011-020700-
...WEST CENTRAL VALLEYS...

CITY           SKY/WX    TMP DP  RH WIND       PRES   REMARKS
GRAND JUNCTION LGT RAIN  48  39  71 SE15      30.15R
MONTROSE       FAIR      43  33  68 E9        30.21R
EAGLE          FAIR      39  30  70 CALM      30.21R
RIFLE          LGT RAIN  45  39  79 E6        30.17S
DELTA          NOT AVBL
NUCLA          NOT AVBL
$$

COZ017>023-064>068-020700-
...SOUTHWEST COLORADO...

CITY           SKY/WX    TMP DP  RH WIND       PRES   REMARKS
DURANGO        CLOUDY    37  36  96 CALM      30.23S
CORTEZ         CLOUDY    42  38  85 W3        30.20S
PAGOSA SPRINGS LGT SNOW  34  34 100 CALM      30.25S
TELLURIDE      FOG       32  32 100 CALM      30.25R VSB 1
WOLF CREEK PAS SNOW      21  21 100 SW9       30.29F VSB 1/4 WCI  11
$$

COZ009-010-012-014-032>034-037-058>063-020700-
...CENTRAL COLORADO...

CITY           SKY/WX    TMP DP  RH WIND       PRES   REMARKS
ASPEN          CLOUDY    37  22  54 VRB7      30.19R
BUENA VISTA    MOCLDY    30  27  90 SE5       30.28S WCI  25
COPPER MTN     NOT AVBL
BERTHOUD PASS  FAIR      12   3  67 CALM      30.26S
COTTONWOOD PAS FLURRIES  28  25  86 CALM      30.27S
GUNNISON       MOCLDY    34  28  80 NE6       30.25F WCI  29
KREMMLING      FAIR      30  21  69 E6        30.24S WCI  24
LEADVILLE      CLOUDY    22  20  92 CALM      30.25S
MONARCH PASS   LGT SNOW  19  16  86 MISG      30.36F
SALIDA         CLOUDY    32  30  92 CALM      30.35F
SUNLIGHT       FLURRIES  30  28  93 CALM      30.28S
WILKERSON PASS CLOUDY   N/A N/A N/A CALM      30.28S FOG
$$

COZ069>075-020700-
...SAN LUIS VALLEY/SANGRE DE CRISTO MOUNTAINS...

CITY           SKY/WX    TMP DP  RH WIND       PRES   REMARKS
ALAMOSA        CLOUDY    32  26  78 SE5       30.24S WCI  27
LA VETA PASS   FOG       21  19  93 MISG      30.26F VSB 1/2
SAGUACHE       CLOUDY    32  30  93 NE3       30.26R
$$

COZ035-036-038>040-020700-
...NORTHERN COLORADO FRONT RANGE...

CITY           SKY/WX    TMP DP  RH WIND       PRES   REMARKS
DENVER INTL AP FAIR      33  27  78 SW7       30.29S WCI  27
DMNS CITY PARK   N/A     35  30  82 SE7       30.30S WCI  29
AURORA         FAIR      31  30  96 S5        30.29F WCI  27
FRONT RANGE AP NOT AVBL
ERIE MUNI ARPT CLOUDY    36  33  88 CALM      30.29S
BOULDER MUN AP CLOUDY    37  32  81 CALM      30.28F
CENTENNIAL     FAIR      32  27  81 S6        30.28F WCI  26
BROOMFIELD     CLOUDY    36  32  87 CALM      30.29S
FORT COLLINS   FAIR      34  25  69 N6        30.30S WCI  29
LONGMONT       MOCLDY    37  33  84 W3        30.31S
$$

COZ041-046-047-076>085-087-088-020700-
...PIKES PEAK/PALMER DIVIDE AND SOUTHERN FOOTHILLS...

CITY           SKY/WX    TMP DP  RH WIND       PRES   REMARKS
COLO. SPRINGS  MOCLDY    33  24  69 NW3       30.30S
A. F. ACADEMY  MOCLDY    27  23  86 NE3       30.28F
SCHRIEVER AFB  NOT AVBL
ELLICOTT       NOT AVBL
FALCON         FAIR      29  23  78 NW6       30.29F WCI  23
FORT CARSON    CLOUDY    36  30  80 W5        30.28F
LIMON          FAIR      27  24  89 NW6       30.29S WCI  20
MONUMENT HILL  FAIR      21  19  93 W6        30.29F WCI  14
TRINIDAD       CLOUDY    34  31  88 NW3       30.30S
$$

COZ042>045-048>051-090-091-020700-
...NORTHEAST COLORADO...

CITY           SKY/WX    TMP DP  RH WIND       PRES   REMARKS
GREELEY ARPT   FAIR      34  28  80 CALM      30.30S
AKRON          FAIR      30  24  78 W12       30.27F WCI  20
BURLINGTON     FAIR      34  26  72 NW8       30.27S WCI  27
WRAY           NOT AVBL
STERLING       MOCLDY    32  28  86 SW3       30.27S
HOLYOKE        NOT AVBL
FORT MORGAN    FAIR      30  27  90 W7        30.29F WCI  23
$$

COZ086-089-092>099-020700-
...SOUTHEAST COLORADO...

CITY           SKY/WX    TMP DP  RH WIND       PRES   REMARKS
PUEBLO         CLOUDY    39  32  76 W6        30.31S
LA JUNTA       MOCLDY    37  32  82 W9        30.30S
LAMAR          FAIR      36  30  79 CALM      30.27S
SPRINGFIELD      N/A     38  35  89 NW9       30.27S
$$




USA.gov is the U.S. government's official web portal to all federal, state and local government web resources and services.